Location: Quaker Farms
(41.4276°N, 73.1557°W)
Time: 20:58:43
(UTC+00:00)

S-56A Canister/Altair - Pass Details

Date: 15 June 2021
Orbit: 631 x 2501 km, 38.9° (Epoch: 30 July)

Event Time Altitude Azimuth Distance (km) Brightness Sun altitude
Rises 13:03:56 0° 267° (W) 3,148 10.2 39.3°
Reaches altitude 10° 13:06:01 10° 265° (W) 2,350 9.7 39.7°
Maximum altitude 13:11:27 72° 182° (S) 1,040 8.9 40.7°
Drops below altitude 10° 13:19:32 10° 100° (E) 3,438 12.0 42.2°
Sets 13:23:11 0° 98° (E) 4,727 12.4 42.9°
